This is the latest recevied weather packets stored in our database for station/object LU4HH-15. If no packets are shown the sender has not sent any weather packets the latest 10 day(s).
| Time | Temp. | Humidity | Pressure | Rain* | Wind** | Luminosity | Snow |
|---|---|---|---|---|---|---|---|
| 1787864966 | 16.11° C | 55% | 1016.5 hPa | - | - | - | - |
| 1787864064 | 16.67° C | 55% | 1016.5 hPa | - | - | - | - |
| 1787863163 | 16.67° C | 55% | 1016.4 hPa | - | - | - | - |
| 1787862262 | 18.33° C | 51% | 1016.3 hPa | - | - | - | - |
| 1787860400 | 16.67° C | 56% | 1016.2 hPa | - | - | - | - |
| 1787859499 | 16.67° C | 56% | 1016.1 hPa | - | - | - | - |
| 1787858597 | 16.67° C | 57% | 1016.2 hPa | - | - | - | - |
| 1787857696 | 16.67° C | 57% | 1016.3 hPa | - | - | - | - |
| 1787856799 | 16.67° C | 58% | 1016.2 hPa | - | - | - | - |
| 1787855895 | 16.67° C | 59% | 1016.4 hPa | - | - | - | - |
| 1787854993 | 16.11° C | 59% | 1016.6 hPa | - | - | - | - |
| 1787854092 | 16.67° C | 59% | 1016.7 hPa | - | - | - | - |
| 1787853190 | 16.11° C | 60% | 1017.1 hPa | - | - | - | - |
| 1787852289 | 16.11° C | 61% | 1017.2 hPa | - | - | - | - |
| 1787851388 | 16.11° C | 62% | 1017.5 hPa | - | - | - | - |
| 1787850487 | 16.11° C | 63% | 1017.5 hPa | - | - | - | - |
| 1787849586 | 15.56° C | 63% | 1017.8 hPa | - | - | - | - |
| 1787848685 | 15.56° C | 64% | 1017.8 hPa | - | - | - | - |
| 1787847783 | 15.56° C | 64% | 1018.1 hPa | - | - | - | - |
| 1787846882 | 15.56° C | 64% | 1018 hPa | - | - | - | - |
| 1787845982 | 15.56° C | 64% | 1018.5 hPa | - | - | - | - |
| 1787845081 | 15.56° C | 64% | 1018.4 hPa | - | - | - | - |
| 1787844182 | 15.56° C | 64% | 1018.5 hPa | - | - | - | - |
| 1787843311 | 15° C | 65% | 1018.8 hPa | - | - | - | - |
| 1787842410 | 15° C | 65% | 1018.8 hPa | - | - | - | - |
* Rain since midnight (hover to see other rain measurements)
** Current wind speed in m/s (hover to see current wind gust speed)